When you browse on this site, cookies collect data to enhance your experience and personalize the content and advertising you see.
Visit our Privacy Policy to learn more. By continuing to use the site, you agree to this use of cookies and data.
  • In Slovakia
  • List of Countries
  • For 7 days
  • Water Temperature
  • Satellite Maps
  • Weather Map
  • Weather Widgets
  • user-avatar
    Login

    Hourly Weather Branica

    Today, 19 December, Wednesday

    Time Temperature Precipitation Wind Pressure Humidity
    00:00 -3°C° 0 mm 2 mps 747 mmHg 88%
    01:00 -3°C° 0 mm 2 mps 746 mmHg 88%
    02:00 -4°C° 0 mm 2 mps 746 mmHg 88%
    03:00 -4°C° 0 mm 2 mps 746 mmHg 88%
    04:00 -4°C° 0 mm 2 mps 746 mmHg 88%
    05:00 -4°C° 0 mm 2 mps 746 mmHg 87%
    06:00 -4°C° 0 mm 2 mps 746 mmHg 87%
    07:00 -4°C° 0 mm 2 mps 745 mmHg 88%
    08:00 -4°C° 0 mm 2 mps 745 mmHg 85%
    09:00 -3°C° 0 mm 2 mps 745 mmHg 81%
    10:00 -2°C° 0 mm 3 mps 745 mmHg 78%
    11:00 -1°C° 0 mm 3 mps 745 mmHg 76%
    12:00 0°C° 0 mm 3 mps 744 mmHg 75%
    13:00 0°C° 0 mm 3 mps 744 mmHg 73%
    14:00 -1°C° 0 mm 2 mps 744 mmHg 77%
    15:00 -1°C° 0 mm 2 mps 744 mmHg 80%
    16:00 -2°C° 0 mm 2 mps 743 mmHg 83%
    17:00 -3°C° 0 mm 2 mps 743 mmHg 83%
    18:00 -3°C° 0 mm 2 mps 743 mmHg 84%
    19:00 -3°C° 0 mm 2 mps 743 mmHg 84%
    20:00 -3°C° 0 mm 2 mps 743 mmHg 84%
    21:00 -3°C° 0 mm 2 mps 743 mmHg 83%
    22:00 -3°C° 0 mm 2 mps 743 mmHg 82%
    23:00 -3°C° 0 mm 2 mps 742 mmHg 80%

    Tomorrow, 20 December, Thursday

    Time Temperature Precipitation Wind Pressure Humidity
    00:00 -3°C° 0 mm 2 mps 742 mmHg 78%
    01:00 -2°C° 0 mm 2 mps 742 mmHg 77%
    02:00 -2°C° 0 mm 2 mps 742 mmHg 76%
    03:00 -2°C° 0 mm 2 mps 742 mmHg 76%
    04:00 -2°C° 0 mm 2 mps 742 mmHg 76%
    05:00 -3°C° 0 mm 2 mps 742 mmHg 76%
    06:00 -3°C° 0 mm 2 mps 742 mmHg 76%
    07:00 -4°C° 0 mm 3 mps 742 mmHg 77%
    08:00 -4°C° 0 mm 3 mps 742 mmHg 76%
    09:00 -2°C° 0 mm 3 mps 742 mmHg 76%
    10:00 -3°C° 0 mm 4 mps 742 mmHg 75%
    11:00 -3°C° 0 mm 4 mps 742 mmHg 75%
    12:00 -2°C° 0 mm 4 mps 741 mmHg 75%
    13:00 -2°C° 0 mm 4 mps 741 mmHg 75%
    14:00 -2°C° 0.1 mm 4 mps 741 mmHg 77%
    15:00 -3°C° 0.1 mm 4 mps 741 mmHg 80%
    16:00 -2°C° 0.1 mm 3 mps 742 mmHg 82%
    17:00 -3°C° 0.1 mm 4 mps 742 mmHg 83%
    18:00 -3°C° 0.1 mm 4 mps 742 mmHg 84%
    19:00 -3°C° 0.1 mm 4 mps 742 mmHg 85%
    20:00 -3°C° 0.1 mm 4 mps 742 mmHg 86%
    21:00 -2°C° 0.1 mm 4 mps 742 mmHg 86%
    22:00 -2°C° 0.1 mm 4 mps 742 mmHg 86%
    23:00 -2°C° 0 mm 4 mps 742 mmHg 87%

    Day after tomorrow, 21 December, Friday

    Time Temperature Precipitation Wind Pressure Humidity
    00:00 -2°C° 0 mm 4 mps 742 mmHg 87%
    01:00 -2°C° 0 mm 4 mps 742 mmHg 88%
    02:00 -2°C° 0 mm 4 mps 742 mmHg 88%
    03:00 -2°C° 0 mm 4 mps 742 mmHg 89%
    04:00 -2°C° 0 mm 4 mps 742 mmHg 89%
    05:00 -2°C° 0 mm 4 mps 741 mmHg 89%
    06:00 -1°C° 0 mm 4 mps 741 mmHg 89%
    07:00 -1°C° 0 mm 4 mps 741 mmHg 89%
    08:00 -1°C° 0.2 mm 4 mps 741 mmHg 87%
    09:00 0°C° 0.2 mm 5 mps 741 mmHg 86%
    10:00 +1°C° 0.2 mm 5 mps 741 mmHg 84%
    11:00 +1°C° 0.3 mm 5 mps 740 mmHg 83%
    12:00 +1°C° 0.3 mm 5 mps 739 mmHg 82%
    13:00 +1°C° 0.3 mm 5 mps 739 mmHg 81%
    14:00 +1°C° 0.4 mm 4 mps 738 mmHg 82%
    15:00 +1°C° 0.4 mm 4 mps 737 mmHg 84%
    16:00 +1°C° 0.4 mm 4 mps 736 mmHg 85%
    17:00 +1°C° 0.5 mm 4 mps 736 mmHg 85%
    18:00 +1°C° 0.5 mm 5 mps 735 mmHg 85%
    19:00 +1°C° 0.5 mm 6 mps 735 mmHg 85%
    20:00 +1°C° 0.4 mm 6 mps 734 mmHg 84%
    21:00 +2°C° 0.4 mm 6 mps 734 mmHg 84%
    22:00 +2°C° 0.4 mm 7 mps 733 mmHg 83%
    23:00 +2°C° 0.7 mm 7 mps 733 mmHg 84%

    22 December, Saturday

    Time Temperature Precipitation Wind Pressure Humidity
    00:00 +3°C° 0.7 mm 7 mps 733 mmHg 86%
    01:00 +3°C° 0.7 mm 7 mps 732 mmHg 87%
    02:00 +3°C° 0.1 mm 7 mps 732 mmHg 87%
    03:00 +3°C° 0.1 mm 6 mps 732 mmHg 88%
    04:00 +3°C° 0.1 mm 6 mps 732 mmHg 89%
    05:00 +3°C° 0.1 mm 6 mps 732 mmHg 89%
    06:00 +3°C° 0.1 mm 6 mps 733 mmHg 89%
    07:00 +3°C° 0.1 mm 5 mps 733 mmHg 90%
    08:00 +3°C° 0.4 mm 5 mps 733 mmHg 90%
    09:00 +4°C° 0.4 mm 6 mps 733 mmHg 90%
    10:00 +4°C° 0.4 mm 6 mps 733 mmHg 91%
    11:00 +5°C° 0.8 mm 5 mps 732 mmHg 91%
    12:00 +5°C° 0.8 mm 5 mps 732 mmHg 91%
    13:00 +5°C° 0.8 mm 5 mps 732 mmHg 92%
    14:00 +5°C° 0.2 mm 5 mps 732 mmHg 90%
    15:00 +5°C° 0.2 mm 5 mps 732 mmHg 87%
    16:00 +5°C° 0.2 mm 5 mps 732 mmHg 85%
    17:00 +4°C° 0.1 mm 6 mps 732 mmHg 84%
    18:00 +4°C° 0.1 mm 6 mps 732 mmHg 84%
    19:00 +4°C° 0.1 mm 6 mps 733 mmHg 83%
    20:00 +4°C° 0.3 mm 6 mps 733 mmHg 83%
    21:00 +4°C° 0.3 mm 6 mps 733 mmHg 83%
    22:00 +4°C° 0.3 mm 6 mps 734 mmHg 83%
    23:00 +4°C° 0.3 mm 7 mps 734 mmHg 83%

    23 December, Sunday

    Time Temperature Precipitation Wind Pressure Humidity
    00:00 +3°C° 0.3 mm 7 mps 735 mmHg 83%
    01:00 +3°C° 0.3 mm 7 mps 735 mmHg 82%
    02:00 +3°C° 0.2 mm 6 mps 736 mmHg 83%
    03:00 +2°C° 0.2 mm 6 mps 737 mmHg 84%
    04:00 +2°C° 0.2 mm 5 mps 737 mmHg 85%
    05:00 +3°C° 0.2 mm 4 mps 738 mmHg 87%
    06:00 +2°C° 0.2 mm 3 mps 738 mmHg 89%
    07:00 +3°C° 0.2 mm 2 mps 739 mmHg 91%
    08:00 +3°C° 0.2 mm 2 mps 739 mmHg 91%
    09:00 +4°C° 0.2 mm 2 mps 740 mmHg 91%
    10:00 +4°C° 0.2 mm 2 mps 740 mmHg 91%
    11:00 +4°C° 0.2 mm 2 mps 740 mmHg 89%
    12:00 +4°C° 0.2 mm 3 mps 740 mmHg 87%
    13:00 +4°C° 0.2 mm 3 mps 740 mmHg 86%
    14:00 +4°C° 0.1 mm 3 mps 740 mmHg 86%
    15:00 +3°C° 0.1 mm 3 mps 740 mmHg 87%
    16:00 +3°C° 0.1 mm 3 mps 740 mmHg 88%
    17:00 +3°C° 0 mm 3 mps 741 mmHg 88%
    18:00 +2°C° 0 mm 3 mps 741 mmHg 88%
    19:00 +2°C° 0 mm 3 mps 741 mmHg 87%
    20:00 +2°C° 0 mm 3 mps 741 mmHg 87%
    21:00 +2°C° 0 mm 3 mps 741 mmHg 88%
    22:00 +2°C° 0 mm 3 mps 741 mmHg 88%
    23:00 +2°C° 0.1 mm 3 mps 741 mmHg 87%

    24 December, Monday

    Time Temperature Precipitation Wind Pressure Humidity
    00:00 +2°C° 0.1 mm 3 mps 741 mmHg 87%
    01:00 +2°C° 0.1 mm 3 mps 741 mmHg 87%
    02:00 +2°C° 0.2 mm 3 mps 741 mmHg 87%
    03:00 +1°C° 0.2 mm 3 mps 741 mmHg 88%
    04:00 +1°C° 0.2 mm 3 mps 741 mmHg 88%
    05:00 +1°C° 0.1 mm 3 mps 741 mmHg 88%
    06:00 +1°C° 0.1 mm 3 mps 741 mmHg 88%
    07:00 0°C° 0.1 mm 4 mps 741 mmHg 88%
    08:00 0°C° 0.4 mm 4 mps 741 mmHg 87%
    09:00 +1°C° 0.4 mm 4 mps 741 mmHg 87%
    10:00 +1°C° 0.4 mm 5 mps 741 mmHg 86%
    11:00 +1°C° 0.2 mm 5 mps 742 mmHg 85%
    12:00 +2°C° 0.2 mm 5 mps 742 mmHg 84%
    13:00 +2°C° 0.2 mm 5 mps 742 mmHg 83%
    14:00 +1°C° 0.1 mm 4 mps 743 mmHg 84%
    15:00 +1°C° 0.1 mm 4 mps 743 mmHg 84%
    16:00 +1°C° 0.1 mm 4 mps 744 mmHg 85%
    17:00 +1°C° 0.1 mm 3 mps 744 mmHg 86%
    18:00 +1°C° 0.1 mm 3 mps 745 mmHg 88%
    19:00 +1°C° 0.1 mm 3 mps 745 mmHg 89%
    20:00 +2°C° 0.1 mm 2 mps 746 mmHg 90%
    21:00 +2°C° 0.1 mm 2 mps 746 mmHg 91%
    22:00 +2°C° 0.1 mm 2 mps 746 mmHg 91%
    23:00 +1°C° 0.1 mm 2 mps 747 mmHg 91%
    Show more